Location: Quebec
(46.8000°N, 71.2500°W)
Time: 18:19:47
(UTC-04:00)

ISS - Pass Details

Date: 07 October 2017
Orbit: 401 x 408 km, 51.6° (Epoch: 19 October)

Event Time Altitude Azimuth Distance (km) Brightness Sun altitude
Rises 19:05:14 0° 288° (WNW) 2,325 1.7 -9.8°
Reaches altitude 10° 19:07:25 10° 298° (WNW) 1,466 0.1 -10.2°
Maximum altitude 19:10:29 35° 6° (N) 684 -2.7 -10.7°
Enters shadow 19:12:45 15° 67° (ENE) 1,183 -2.0 -11.1°
